VOE4QB LIPX-LEZL

Flight info

Callsign VOE4QB
Flight time 2h 20m
Altitude 37000
Route OSBUL DCT BORDI DCT PADKO UM984 DIVKO G7 MAMES M984 BISBA DCT RODRA M985 MAMIS
Aircraft A320/M-SDE3FGHIRWY/LB1

Departure

Time 2026-05-06 15:56
Airport Verona Villafranca Valerio Catullo Airport (LIPX)

Arrival

Time 2026-05-06 18:16
Airport Seville Airport (LEZL)
Time Latitude Longitude Altitude Speed Heading
2026-05-06 15:26 45.40466 10.90628 242 ft 0 kts 135°
2026-05-06 15:52 45.40454 10.90645 242 ft 3 kts 136°
2026-05-06 15:52 45.40443 10.90674 242 ft 5 kts 97°
2026-05-06 15:53 45.40465 10.90719 242 ft 5 kts 47°
2026-05-06 15:53 45.40497 10.90755 242 ft 8 kts 19°
2026-05-06 15:53 45.40540 10.90721 242 ft 7 kts 316°
2026-05-06 15:53 45.40573 10.90676 242 ft 6 kts 317°
2026-05-06 15:54 45.40606 10.90650 242 ft 5 kts 336°
2026-05-06 15:54 45.40623 10.90634 243 ft 1 kts 318°
2026-05-06 15:54 45.40633 10.90601 244 ft 9 kts 282°
2026-05-06 15:54 45.40621 10.90504 247 ft 9 kts 260°
2026-05-06 15:55 45.40619 10.90415 248 ft 10 kts 261°
2026-05-06 15:55 45.40571 10.90309 246 ft 21 kts 226°
2026-05-06 15:55 45.40339 10.89973 246 ft 82 kts 226°
2026-05-06 15:55 45.39789 10.89174 240 ft 142 kts 225°
2026-05-06 15:56 45.39005 10.88029 449 ft 169 kts 225°
2026-05-06 15:56 45.38218 10.86773 1102 ft 172 kts 239°
2026-05-06 15:56 45.37750 10.85167 1671 ft 184 kts 250°
2026-05-06 15:56 45.37304 10.83362 2099 ft 201 kts 250°
2026-05-06 15:57 45.36811 10.81397 2524 ft 222 kts 249°
2026-05-06 15:57 45.36238 10.79228 2971 ft 246 kts 246°
2026-05-06 15:57 45.35227 10.77179 3549 ft 262 kts 219°
2026-05-06 15:57 45.33713 10.75708 4457 ft 265 kts 212°
2026-05-06 15:58 45.32153 10.74282 5415 ft 268 kts 212°
2026-05-06 15:58 45.30582 10.72855 6363 ft 270 kts 212°
2026-05-06 15:58 45.28992 10.71417 7292 ft 272 kts 212°
2026-05-06 15:58 45.27388 10.69965 8162 ft 275 kts 213°
2026-05-06 15:59 45.25762 10.68488 9036 ft 279 kts 213°
2026-05-06 15:59 45.24119 10.67000 9878 ft 282 kts 213°
2026-05-06 15:59 45.22424 10.65467 10401 ft 299 kts 213°
2026-05-06 15:59 45.20597 10.63810 10657 ft 324 kts 213°
2026-05-06 16:00 45.18640 10.62034 11002 ft 341 kts 213°
2026-05-06 16:00 45.16620 10.60207 11665 ft 347 kts 213°
2026-05-06 16:00 45.14572 10.58358 12415 ft 350 kts 213°
2026-05-06 16:00 45.12514 10.56503 13142 ft 353 kts 213°
2026-05-06 16:01 45.10431 10.54623 13838 ft 356 kts 213°
2026-05-06 16:01 45.08330 10.52727 14512 ft 360 kts 213°
2026-05-06 16:01 45.06212 10.50819 15162 ft 363 kts 213°
2026-05-06 16:01 45.04074 10.48893 15807 ft 366 kts 213°
2026-05-06 16:02 45.02129 10.47143 16381 ft 369 kts 213°
2026-05-06 16:02 44.99955 10.45192 17005 ft 371 kts 213°
2026-05-06 16:02 44.97763 10.43233 17604 ft 374 kts 212°
2026-05-06 16:02 44.95554 10.41263 18180 ft 377 kts 212°
2026-05-06 16:03 44.93324 10.39273 18765 ft 381 kts 213°
2026-05-06 16:03 44.91074 10.37257 19335 ft 384 kts 213°
2026-05-06 16:03 44.88812 10.35227 19906 ft 387 kts 213°
2026-05-06 16:03 44.86529 10.33184 20458 ft 390 kts 213°
2026-05-06 16:04 44.84331 10.30953 20972 ft 392 kts 221°
2026-05-06 16:04 44.82438 10.28171 21475 ft 395 kts 231°
2026-05-06 16:04 44.80944 10.24914 21962 ft 398 kts 242°
2026-05-06 16:04 44.79832 10.21333 22427 ft 401 kts 246°
2026-05-06 16:05 44.78755 10.17705 22884 ft 403 kts 246°
2026-05-06 16:05 44.77660 10.14058 23334 ft 405 kts 245°
2026-05-06 16:05 44.76554 10.10400 23753 ft 408 kts 245°
2026-05-06 16:05 44.75439 10.06726 24162 ft 410 kts 245°
2026-05-06 16:06 44.74316 10.03033 24549 ft 412 kts 245°
2026-05-06 16:06 44.73189 9.99322 24939 ft 414 kts 245°
2026-05-06 16:06 44.72058 9.95599 25323 ft 415 kts 245°
2026-05-06 16:06 44.70922 9.91859 25702 ft 417 kts 245°
2026-05-06 16:07 44.69782 9.88107 26054 ft 419 kts 245°
2026-05-06 16:07 44.68634 9.84334 26398 ft 420 kts 245°
2026-05-06 16:07 44.67486 9.80557 26738 ft 422 kts 245°
2026-05-06 16:07 44.66327 9.76755 27064 ft 424 kts 245°
2026-05-06 16:08 44.65161 9.72946 27381 ft 425 kts 245°
2026-05-06 16:08 44.63991 9.69126 27667 ft 427 kts 245°
2026-05-06 16:08 44.62816 9.65295 27962 ft 428 kts 245°
2026-05-06 16:08 44.61637 9.61450 28239 ft 430 kts 245°
2026-05-06 16:09 44.60450 9.57589 28489 ft 431 kts 245°
2026-05-06 16:09 44.59258 9.53724 28744 ft 432 kts 245°
2026-05-06 16:09 44.58064 9.49854 28986 ft 433 kts 245°
2026-05-06 16:09 44.56867 9.45968 29246 ft 433 kts 245°
2026-05-06 16:10 44.55674 9.42099 29568 ft 432 kts 245°
2026-05-06 16:10 44.54482 9.38248 29911 ft 430 kts 245°
2026-05-06 16:10 44.53289 9.34403 30222 ft 429 kts 245°
2026-05-06 16:10 44.52099 9.30573 30539 ft 428 kts 245°
2026-05-06 16:11 44.50909 9.26752 30807 ft 428 kts 245°
2026-05-06 16:11 44.49716 9.22930 30868 ft 427 kts 245°
2026-05-06 16:11 44.47351 9.15360 30884 ft 427 kts 245°
2026-05-06 16:12 44.44966 9.07750 31074 ft 427 kts 245°
2026-05-06 16:12 44.43774 9.03952 31384 ft 426 kts 245°
2026-05-06 16:12 44.42581 9.00156 31704 ft 425 kts 245°
2026-05-06 16:13 44.41393 8.96377 32005 ft 424 kts 245°
2026-05-06 16:13 44.40201 8.92604 32304 ft 424 kts 244°
2026-05-06 16:13 44.39010 8.88843 32586 ft 423 kts 245°
2026-05-06 16:13 44.37821 8.85084 32865 ft 422 kts 244°
2026-05-06 16:14 44.36633 8.81337 33143 ft 421 kts 244°
2026-05-06 16:14 44.35446 8.77596 33421 ft 421 kts 244°
2026-05-06 16:14 44.34264 8.73872 33694 ft 420 kts 244°
2026-05-06 16:14 44.33076 8.70135 33961 ft 419 kts 244°
2026-05-06 16:15 44.31894 8.66421 34243 ft 418 kts 244°
2026-05-06 16:15 44.30711 8.62713 34495 ft 418 kts 244°
2026-05-06 16:15 44.29525 8.59012 34741 ft 418 kts 244°
2026-05-06 16:15 44.28339 8.55310 34966 ft 418 kts 244°
2026-05-06 16:16 44.27153 8.51604 35179 ft 418 kts 244°
2026-05-06 16:16 44.25967 8.47904 35390 ft 418 kts 244°
2026-05-06 16:16 44.24784 8.44207 35588 ft 418 kts 244°
2026-05-06 16:16 44.23596 8.40507 35783 ft 418 kts 244°
2026-05-06 16:17 44.22406 8.36816 35971 ft 418 kts 244°
2026-05-06 16:17 44.21209 8.33121 36164 ft 418 kts 244°
2026-05-06 16:17 44.20013 8.29422 36345 ft 419 kts 244°
2026-05-06 16:17 44.18816 8.25723 36506 ft 419 kts 244°
2026-05-06 16:18 44.17619 8.22021 36689 ft 419 kts 244°
2026-05-06 16:18 44.16424 8.18335 36812 ft 417 kts 244°
2026-05-06 16:18 44.14043 8.11015 36840 ft 414 kts 244°
2026-05-06 16:19 44.11664 8.03731 36841 ft 413 kts 244°
2026-05-06 16:19 44.09288 7.96449 36841 ft 413 kts 244°
2026-05-06 16:20 44.06922 7.89221 36827 ft 413 kts 244°
2026-05-06 16:20 44.04535 7.81952 36827 ft 413 kts 244°
2026-05-06 16:21 44.02144 7.74694 36827 ft 413 kts 244°
2026-05-06 16:21 43.99819 7.67394 36833 ft 414 kts 245°
2026-05-06 16:22 43.97546 7.60051 36838 ft 414 kts 245°
2026-05-06 16:22 43.95265 7.52728 36839 ft 413 kts 245°
2026-05-06 16:23 43.92958 7.45429 36836 ft 413 kts 245°
2026-05-06 16:23 43.90642 7.38129 36837 ft 413 kts 245°
2026-05-06 16:24 43.88714 7.32069 36829 ft 413 kts 245°
2026-05-06 16:24 43.86395 7.24778 36832 ft 414 kts 245°
2026-05-06 16:25 43.84074 7.17492 36834 ft 413 kts 245°
2026-05-06 16:25 43.81317 7.10541 36831 ft 412 kts 235°
2026-05-06 16:26 43.78094 7.03970 36836 ft 413 kts 235°
2026-05-06 16:26 43.74863 6.97404 36834 ft 413 kts 235°
2026-05-06 16:27 43.71632 6.90826 36835 ft 413 kts 235°
2026-05-06 16:27 43.68394 6.84254 36841 ft 414 kts 235°
2026-05-06 16:28 43.65138 6.77689 36839 ft 414 kts 235°
2026-05-06 16:28 43.61882 6.71127 36840 ft 414 kts 235°
2026-05-06 16:29 43.58624 6.64568 36843 ft 415 kts 235°
2026-05-06 16:29 43.55357 6.58007 36851 ft 415 kts 235°
2026-05-06 16:30 43.52639 6.52562 36852 ft 415 kts 235°
2026-05-06 16:30 43.48806 6.44919 36862 ft 415 kts 235°
2026-05-06 16:31 43.45527 6.38383 36872 ft 415 kts 235°
2026-05-06 16:31 43.42242 6.31847 36880 ft 416 kts 235°
2026-05-06 16:32 43.38946 6.25302 36891 ft 416 kts 235°
2026-05-06 16:32 43.35648 6.18775 36891 ft 415 kts 235°
2026-05-06 16:33 43.32354 6.12252 36890 ft 415 kts 235°
2026-05-06 16:34 43.27433 6.02539 36896 ft 415 kts 234°
2026-05-06 16:34 43.24129 5.96050 36903 ft 415 kts 234°
2026-05-06 16:35 43.20819 5.89564 36900 ft 415 kts 235°
2026-05-06 16:35 43.17508 5.83074 36917 ft 416 kts 235°
2026-05-06 16:36 43.14193 5.76593 36908 ft 415 kts 234°
2026-05-06 16:36 43.10867 5.70128 36916 ft 415 kts 234°
2026-05-06 16:37 43.07539 5.63670 36914 ft 415 kts 234°
2026-05-06 16:37 43.04215 5.57212 36916 ft 415 kts 234°
2026-05-06 16:38 43.00888 5.50767 36921 ft 415 kts 234°
2026-05-06 16:38 42.97561 5.44323 36917 ft 415 kts 234°
2026-05-06 16:39 42.94237 5.37887 36924 ft 415 kts 234°
2026-05-06 16:39 42.90912 5.31458 36917 ft 415 kts 234°
2026-05-06 16:40 42.87576 5.25041 36919 ft 415 kts 234°
2026-05-06 16:40 42.84233 5.18618 36920 ft 415 kts 234°
2026-05-06 16:41 42.80888 5.12206 36929 ft 415 kts 234°
2026-05-06 16:41 42.77542 5.05798 36921 ft 416 kts 234°
2026-05-06 16:42 42.74185 4.99394 36931 ft 415 kts 234°
2026-05-06 16:42 42.70810 4.93018 36932 ft 415 kts 234°
2026-05-06 16:43 42.67437 4.86654 36930 ft 415 kts 234°
2026-05-06 16:43 42.64067 4.80288 36916 ft 415 kts 234°
2026-05-06 16:44 42.60695 4.73941 36917 ft 414 kts 234°
2026-05-06 16:44 42.57322 4.67596 36927 ft 414 kts 234°
2026-05-06 16:45 42.53946 4.61264 36917 ft 414 kts 234°
2026-05-06 16:45 42.50568 4.54947 36929 ft 414 kts 234°
2026-05-06 16:46 42.47185 4.48630 36932 ft 414 kts 234°
2026-05-06 16:46 42.43800 4.42318 36933 ft 414 kts 234°
2026-05-06 16:47 42.40408 4.36008 36938 ft 414 kts 234°
2026-05-06 16:47 42.37016 4.29714 36940 ft 414 kts 234°
2026-05-06 16:48 42.33626 4.23431 36945 ft 414 kts 234°
2026-05-06 16:48 42.30228 4.17162 36947 ft 413 kts 234°
2026-05-06 16:49 42.26832 4.10900 36947 ft 413 kts 234°
2026-05-06 16:49 42.23433 4.04653 36947 ft 413 kts 234°
2026-05-06 16:50 42.20313 3.98167 36950 ft 413 kts 245°
2026-05-06 16:50 42.18007 3.91086 36953 ft 413 kts 245°
2026-05-06 16:51 42.15692 3.84005 36953 ft 413 kts 245°
2026-05-06 16:51 42.13369 3.76931 36952 ft 413 kts 245°
2026-05-06 16:52 42.11037 3.69864 36950 ft 413 kts 245°
2026-05-06 16:52 42.08645 3.62844 36948 ft 412 kts 240°
2026-05-06 16:53 42.05418 3.56479 36944 ft 412 kts 234°
2026-05-06 16:53 42.02081 3.50211 36941 ft 412 kts 234°
2026-05-06 16:54 41.98745 3.43952 36936 ft 412 kts 234°
2026-05-06 16:54 41.95411 3.37695 36939 ft 412 kts 234°
2026-05-06 16:55 41.92073 3.31447 36940 ft 412 kts 234°
2026-05-06 16:55 41.88731 3.25194 36940 ft 412 kts 234°
2026-05-06 16:56 41.85384 3.18946 36941 ft 412 kts 234°
2026-05-06 16:56 41.82026 3.12694 36946 ft 414 kts 234°
2026-05-06 16:57 41.78658 3.06445 36947 ft 414 kts 234°
2026-05-06 16:57 41.75289 3.00205 36944 ft 413 kts 234°
2026-05-06 16:58 41.71917 2.93967 36939 ft 414 kts 234°
2026-05-06 16:58 41.68540 2.87736 36938 ft 414 kts 234°
2026-05-06 16:59 41.65153 2.81507 36939 ft 414 kts 234°
2026-05-06 16:59 41.61787 2.75317 36937 ft 415 kts 234°
2026-05-06 17:00 41.58393 2.69083 36939 ft 415 kts 234°
2026-05-06 17:00 41.54967 2.62816 36938 ft 415 kts 234°
2026-05-06 17:01 41.51558 2.56597 36936 ft 415 kts 234°
2026-05-06 17:01 41.48175 2.50416 36935 ft 416 kts 234°
2026-05-06 17:02 41.44760 2.44193 36935 ft 416 kts 234°
2026-05-06 17:02 41.41331 2.37981 36935 ft 416 kts 234°
2026-05-06 17:03 41.37904 2.31784 36934 ft 416 kts 234°
2026-05-06 17:03 41.34478 2.25584 36934 ft 416 kts 234°
2026-05-06 17:04 41.31048 2.19400 36932 ft 415 kts 234°
2026-05-06 17:04 41.27623 2.13213 36936 ft 415 kts 234°
2026-05-06 17:05 41.24186 2.07033 36938 ft 416 kts 234°
2026-05-06 17:05 41.20749 2.00863 36941 ft 416 kts 234°
2026-05-06 17:06 41.17304 1.94695 36942 ft 416 kts 234°
2026-05-06 17:06 41.13845 1.88537 36942 ft 416 kts 234°
2026-05-06 17:07 41.10949 1.83383 36943 ft 416 kts 234°
2026-05-06 17:07 41.07496 1.77224 36945 ft 416 kts 234°
2026-05-06 17:08 41.03907 1.71210 36945 ft 416 kts 229°
2026-05-06 17:08 41.00015 1.65528 36941 ft 416 kts 229°
2026-05-06 17:09 40.96130 1.59840 36938 ft 417 kts 229°
2026-05-06 17:09 40.92240 1.54155 36940 ft 417 kts 229°
2026-05-06 17:10 40.88341 1.48478 36938 ft 417 kts 229°
2026-05-06 17:10 40.84434 1.42811 36938 ft 417 kts 229°
2026-05-06 17:11 40.80530 1.37151 36939 ft 417 kts 229°
2026-05-06 17:11 40.76651 1.31527 36940 ft 417 kts 229°
2026-05-06 17:12 40.72745 1.25883 36938 ft 417 kts 229°
2026-05-06 17:12 40.68835 1.20248 36939 ft 417 kts 229°
2026-05-06 17:13 40.64928 1.14607 36939 ft 417 kts 229°
2026-05-06 17:13 40.61015 1.08970 36938 ft 417 kts 229°
2026-05-06 17:14 40.57098 1.03351 36936 ft 416 kts 229°
2026-05-06 17:14 40.53182 0.97741 36937 ft 416 kts 229°
2026-05-06 17:15 40.49266 0.92145 36936 ft 416 kts 229°
2026-05-06 17:15 40.45349 0.86557 36930 ft 416 kts 228°
2026-05-06 17:16 40.41430 0.80968 36931 ft 416 kts 229°
2026-05-06 17:16 40.37508 0.75391 36934 ft 416 kts 228°
2026-05-06 17:17 40.33573 0.69819 36940 ft 416 kts 228°
2026-05-06 17:17 40.29644 0.64259 36943 ft 416 kts 228°
2026-05-06 17:18 40.25712 0.58708 36945 ft 416 kts 228°
2026-05-06 17:18 40.21777 0.53158 36947 ft 416 kts 228°
2026-05-06 17:19 40.17832 0.47617 36951 ft 416 kts 228°
2026-05-06 17:19 40.13896 0.42083 36953 ft 416 kts 228°
2026-05-06 17:20 40.09961 0.36553 36956 ft 415 kts 228°
2026-05-06 17:20 40.06022 0.31043 36953 ft 415 kts 228°
2026-05-06 17:21 40.02079 0.25545 36954 ft 415 kts 228°
2026-05-06 17:21 39.98134 0.20042 36956 ft 415 kts 228°
2026-05-06 17:22 39.94192 0.14553 36955 ft 415 kts 228°
2026-05-06 17:22 39.90252 0.09074 36955 ft 414 kts 228°
2026-05-06 17:23 39.86340 0.03641 36954 ft 414 kts 228°
2026-05-06 17:23 39.82399 -0.01829 36952 ft 414 kts 228°
2026-05-06 17:24 39.78451 -0.07291 36945 ft 415 kts 228°
2026-05-06 17:24 39.74492 -0.12756 36946 ft 416 kts 228°
2026-05-06 17:25 39.70521 -0.18218 36949 ft 416 kts 228°
2026-05-06 17:25 39.66554 -0.23674 36949 ft 416 kts 228°
2026-05-06 17:26 39.62581 -0.29123 36949 ft 415 kts 228°
2026-05-06 17:26 39.58616 -0.34568 36947 ft 415 kts 228°
2026-05-06 17:27 39.54647 -0.40009 36946 ft 416 kts 228°
2026-05-06 17:27 39.50670 -0.45442 36947 ft 415 kts 227°
2026-05-06 17:28 39.46922 -0.51115 36945 ft 414 kts 233°
2026-05-06 17:28 39.43445 -0.57066 36943 ft 414 kts 233°
2026-05-06 17:29 39.39961 -0.62999 36942 ft 414 kts 233°
2026-05-06 17:29 39.36470 -0.68931 36944 ft 415 kts 233°
2026-05-06 17:30 39.32981 -0.74867 36946 ft 415 kts 233°
2026-05-06 17:30 39.29484 -0.80803 36948 ft 415 kts 233°
2026-05-06 17:31 39.25983 -0.86730 36951 ft 415 kts 233°
2026-05-06 17:31 39.22475 -0.92652 36953 ft 415 kts 233°
2026-05-06 17:32 39.18965 -0.98566 36955 ft 415 kts 233°
2026-05-06 17:32 39.15480 -1.04448 36956 ft 416 kts 233°
2026-05-06 17:33 39.11961 -1.10361 36954 ft 416 kts 233°
2026-05-06 17:33 39.08434 -1.16262 36952 ft 416 kts 233°
2026-05-06 17:34 39.04913 -1.22155 36949 ft 415 kts 233°
2026-05-06 17:34 39.01392 -1.28046 36947 ft 415 kts 233°
2026-05-06 17:35 38.97867 -1.33928 36944 ft 415 kts 233°
2026-05-06 17:35 38.94345 -1.39794 36938 ft 415 kts 233°
2026-05-06 17:36 38.89054 -1.48587 36931 ft 414 kts 233°
2026-05-06 17:36 38.85528 -1.54437 36929 ft 415 kts 233°
2026-05-06 17:37 38.81992 -1.60280 36930 ft 414 kts 233°
2026-05-06 17:37 38.78459 -1.66109 36909 ft 414 kts 233°
2026-05-06 17:38 38.74923 -1.71941 36913 ft 414 kts 233°
2026-05-06 17:38 38.71663 -1.77300 36914 ft 414 kts 233°
2026-05-06 17:39 38.68122 -1.83120 36929 ft 415 kts 233°
2026-05-06 17:39 38.64577 -1.88938 36929 ft 414 kts 233°
2026-05-06 17:40 38.61018 -1.94747 36921 ft 415 kts 233°
2026-05-06 17:40 38.57461 -2.00555 36922 ft 415 kts 233°
2026-05-06 17:41 38.53904 -2.06357 36922 ft 415 kts 233°
2026-05-06 17:41 38.50342 -2.12157 36929 ft 415 kts 233°
2026-05-06 17:42 38.46777 -2.17956 36921 ft 415 kts 233°
2026-05-06 17:42 38.43215 -2.23746 36922 ft 415 kts 232°
2026-05-06 17:43 38.39670 -2.29481 36918 ft 415 kts 232°
2026-05-06 17:43 38.36086 -2.35242 36915 ft 415 kts 230°
2026-05-06 17:44 38.32120 -2.40601 36926 ft 416 kts 227°
2026-05-06 17:44 38.28140 -2.45939 36923 ft 415 kts 227°
2026-05-06 17:45 38.24170 -2.51276 36929 ft 415 kts 227°
2026-05-06 17:45 38.20193 -2.56606 36928 ft 415 kts 227°
2026-05-06 17:46 38.16208 -2.61931 36929 ft 416 kts 227°
2026-05-06 17:46 38.12213 -2.67248 36928 ft 416 kts 227°
2026-05-06 17:47 38.08225 -2.72571 36913 ft 416 kts 227°
2026-05-06 17:47 38.04232 -2.77886 36928 ft 416 kts 227°
2026-05-06 17:48 38.00239 -2.83190 36929 ft 416 kts 227°
2026-05-06 17:48 37.96229 -2.88484 36921 ft 416 kts 227°
2026-05-06 17:49 37.92231 -2.93768 36928 ft 415 kts 227°
2026-05-06 17:49 37.88246 -2.99041 36930 ft 414 kts 227°
2026-05-06 17:50 37.84260 -3.04306 36923 ft 414 kts 227°
2026-05-06 17:50 37.80266 -3.09559 36907 ft 414 kts 227°
2026-05-06 17:51 37.76347 -3.14874 36907 ft 413 kts 233°
2026-05-06 17:51 37.74037 -3.20103 36908 ft 411 kts 250°
2026-05-06 17:52 37.72971 -3.27187 36904 ft 413 kts 264°
2026-05-06 17:52 37.72585 -3.34430 36896 ft 413 kts 264°
2026-05-06 17:53 37.72180 -3.41678 36886 ft 413 kts 264°
2026-05-06 17:53 37.71774 -3.48914 36893 ft 413 kts 264°
2026-05-06 17:54 37.71363 -3.56160 36889 ft 414 kts 264°
2026-05-06 17:54 37.70953 -3.63405 36888 ft 414 kts 264°
2026-05-06 17:55 37.70537 -3.70656 36809 ft 413 kts 264°
2026-05-06 17:55 37.70327 -3.74276 36160 ft 413 kts 264°
2026-05-06 17:55 37.70114 -3.77898 35331 ft 415 kts 264°
2026-05-06 17:56 37.69899 -3.81553 34395 ft 420 kts 264°
2026-05-06 17:56 37.69682 -3.85238 33545 ft 422 kts 264°
2026-05-06 17:56 37.69466 -3.88930 32672 ft 422 kts 264°
2026-05-06 17:56 37.69247 -3.92640 31739 ft 425 kts 264°
2026-05-06 17:57 37.69022 -3.96375 30756 ft 428 kts 264°
2026-05-06 17:57 37.68792 -4.00126 29708 ft 431 kts 264°
2026-05-06 17:57 37.68557 -4.03913 28598 ft 435 kts 264°
2026-05-06 17:57 37.68320 -4.07735 27466 ft 438 kts 264°
2026-05-06 17:58 37.68085 -4.11553 26631 ft 434 kts 264°
2026-05-06 17:58 37.67855 -4.15335 25798 ft 431 kts 264°
2026-05-06 17:58 37.67627 -4.19085 24985 ft 427 kts 264°
2026-05-06 17:58 37.67397 -4.22811 24199 ft 424 kts 264°
2026-05-06 17:59 37.67168 -4.26503 23423 ft 421 kts 264°
2026-05-06 17:59 37.66936 -4.30170 22687 ft 417 kts 264°
2026-05-06 17:59 37.66705 -4.33800 21991 ft 413 kts 264°
2026-05-06 17:59 37.66474 -4.37396 21302 ft 410 kts 264°
2026-05-06 18:00 37.66246 -4.40965 20629 ft 406 kts 265°
2026-05-06 18:00 37.66021 -4.44495 19976 ft 402 kts 264°
2026-05-06 18:00 37.65796 -4.48003 19330 ft 399 kts 265°
2026-05-06 18:00 37.65576 -4.51479 18710 ft 396 kts 265°
2026-05-06 18:01 37.65356 -4.54925 18120 ft 393 kts 264°
2026-05-06 18:01 37.65130 -4.58356 17884 ft 393 kts 264°
2026-05-06 18:01 37.64901 -4.61792 17834 ft 392 kts 264°
2026-05-06 18:01 37.64677 -4.65196 17306 ft 388 kts 264°
2026-05-06 18:02 37.64452 -4.68572 16694 ft 385 kts 264°
2026-05-06 18:02 37.64227 -4.71932 16084 ft 383 kts 264°
2026-05-06 18:02 37.64004 -4.75268 15491 ft 381 kts 264°
2026-05-06 18:02 37.63781 -4.78584 14903 ft 378 kts 264°
2026-05-06 18:03 37.63560 -4.81873 14307 ft 375 kts 264°
2026-05-06 18:03 37.63345 -4.85100 13706 ft 372 kts 264°
2026-05-06 18:03 37.63129 -4.88343 13100 ft 370 kts 264°
2026-05-06 18:03 37.62912 -4.91565 12480 ft 368 kts 264°
2026-05-06 18:04 37.62695 -4.94765 11856 ft 365 kts 264°
2026-05-06 18:04 37.62475 -4.97945 11220 ft 362 kts 264°
2026-05-06 18:04 37.62251 -5.01099 10568 ft 360 kts 264°
2026-05-06 18:04 37.62029 -5.04236 9899 ft 358 kts 264°
2026-05-06 18:05 37.61811 -5.07359 9644 ft 345 kts 265°
2026-05-06 18:05 37.61608 -5.10259 9510 ft 329 kts 265°
2026-05-06 18:05 37.61412 -5.13065 9394 ft 314 kts 265°
2026-05-06 18:05 37.61225 -5.15755 9268 ft 301 kts 265°
2026-05-06 18:06 37.61044 -5.18337 9094 ft 291 kts 265°
2026-05-06 18:06 37.60865 -5.20850 8893 ft 287 kts 265°
2026-05-06 18:06 37.60648 -5.23351 8873 ft 287 kts 259°
2026-05-06 18:06 37.60065 -5.25758 8871 ft 288 kts 246°
2026-05-06 18:07 37.59075 -5.27954 8870 ft 288 kts 236°
2026-05-06 18:07 37.57954 -5.30049 8876 ft 288 kts 236°
2026-05-06 18:07 37.56837 -5.32149 8888 ft 289 kts 236°
2026-05-06 18:07 37.55723 -5.34251 8808 ft 287 kts 236°
2026-05-06 18:08 37.54617 -5.36335 8413 ft 285 kts 236°
2026-05-06 18:08 37.53517 -5.38403 8004 ft 283 kts 236°
2026-05-06 18:08 37.52422 -5.40464 7609 ft 282 kts 236°
2026-05-06 18:08 37.51334 -5.42512 7203 ft 281 kts 236°
2026-05-06 18:09 37.50250 -5.44540 6800 ft 278 kts 236°
2026-05-06 18:09 37.49278 -5.46353 6421 ft 277 kts 236°
2026-05-06 18:09 37.48711 -5.47415 6208 ft 275 kts 236°
2026-05-06 18:09 37.47648 -5.49416 5802 ft 273 kts 236°
2026-05-06 18:10 37.46848 -5.50906 5469 ft 272 kts 236°
2026-05-06 18:10 37.46254 -5.52007 5235 ft 271 kts 236°
2026-05-06 18:10 37.45212 -5.53946 5007 ft 262 kts 236°
2026-05-06 18:11 37.44207 -5.55820 4760 ft 255 kts 236°
2026-05-06 18:11 37.43232 -5.57641 4506 ft 247 kts 236°
2026-05-06 18:11 37.42327 -5.59443 4260 ft 241 kts 245°
2026-05-06 18:11 37.41877 -5.61429 4022 ft 234 kts 264°
2026-05-06 18:12 37.41854 -5.63450 3778 ft 229 kts 270°
2026-05-06 18:12 37.41856 -5.64966 3573 ft 225 kts 270°
2026-05-06 18:12 37.41854 -5.66912 3332 ft 221 kts 269°
2026-05-06 18:12 37.41847 -5.68831 3018 ft 220 kts 269°
2026-05-06 18:13 37.41838 -5.70703 2717 ft 212 kts 269°
2026-05-06 18:13 37.41834 -5.72504 2432 ft 200 kts 269°
2026-05-06 18:13 37.41831 -5.74215 2204 ft 189 kts 269°
2026-05-06 18:13 37.41828 -5.75811 1937 ft 177 kts 269°
2026-05-06 18:14 37.41826 -5.77311 1695 ft 165 kts 269°
2026-05-06 18:14 37.41824 -5.78673 1499 ft 149 kts 269°
2026-05-06 18:14 37.41820 -5.79927 1299 ft 139 kts 268°
2026-05-06 18:14 37.41817 -5.81129 1111 ft 136 kts 268°
2026-05-06 18:15 37.41812 -5.82312 930 ft 134 kts 268°
2026-05-06 18:15 37.41810 -5.83486 763 ft 134 kts 269°
2026-05-06 18:15 37.41807 -5.84660 586 ft 135 kts 268°
2026-05-06 18:15 37.41806 -5.85836 405 ft 135 kts 269°
2026-05-06 18:16 37.41805 -5.87016 226 ft 134 kts 268°
2026-05-06 18:16 37.41799 -5.88165 111 ft 123 kts 268°
2026-05-06 18:16 37.41794 -5.89077 102 ft 81 kts 270°
2026-05-06 18:16 37.41794 -5.89573 100 ft 33 kts 270°
2026-05-06 18:17 37.41808 -5.89754 100 ft 16 kts 298°
2026-05-06 18:17 37.41899 -5.89829 97 ft 8 kts 337°
2026-05-06 18:17 37.41905 -5.89832 97 ft 1 kts 338°
2026-05-06 18:17 37.41911 -5.89835 97 ft 1 kts 338°
2026-05-06 18:18 37.41921 -5.89840 97 ft 2 kts 338°
2026-05-06 18:18 37.41934 -5.89847 96 ft 3 kts 338°
2026-05-06 18:18 37.41954 -5.89857 96 ft 3 kts 338°
2026-05-06 18:18 37.41979 -5.89871 98 ft 5 kts 336°
2026-05-06 18:19 37.42026 -5.89896 95 ft 9 kts 336°
2026-05-06 18:19 37.42086 -5.89929 96 ft 9 kts 340°
2026-05-06 18:19 37.42143 -5.89909 94 ft 9 kts 40°
2026-05-06 18:19 37.42183 -5.89858 93 ft 8 kts 45°
2026-05-06 18:20 37.42224 -5.89820 94 ft 7 kts
2026-05-06 18:20 37.42255 -5.89854 94 ft 6 kts 313°
2026-05-06 18:20 37.42273 -5.89877 96 ft 1 kts 314°
2026-05-06 18:20 37.42276 -5.89880 94 ft 0 kts 314°
2026-05-06 18:21 37.42276 -5.89881 94 ft 0 kts 314°